Location: Miss�
(46.9484°N, 0.1922°W)
Time: 06:45:05
(UTC+00:00)

SAR-Lupe-1 - Pass Details

Date: 02 March 2021
Orbit: 482 x 483 km, 98.2° (Epoch: 30 March)

Event Time Altitude Azimuth Distance (km) Brightness Sun altitude
Rises 18:49:35 0° 16° (NNE) 2,559 7.6 -11.3°
Reaches altitude 10° 18:51:40 10° 18° (NNE) 1,674 6.6 -11.7°
Maximum altitude 18:55:15 69° 103° (ESE) 523 4.0 -12.3°
Drops below altitude 10° 18:58:48 10° 187° (S) 1,659 6.8 -12.9°
Sets 19:00:52 0° 190° (S) 2,534 7.8 -13.2°
